QPF
0.00 0.00 0.00 0.00 0.00 0.00 0.00 0.00 0.00 0.00 0.00 0.00 0.00 0.00 0.00 0.00 0.00 0.00 0.00 0.00 0.00 0.00 0.00 0.00 0.00 0.00 0.00 0.00 0.00 0.00 0.00 0.00 0.00 0.00 0.01 0.00 0.02 0.00 0.00 0.00 0.00 0.01 0.01 0.03 0.00
0.00 0.00 0.00 0.00 0.00 0.00 0.00 0.00 0.00 0.00 0.00 0.00 0.00 0.00 0.00 0.00 0.00 0.00 0.00 0.00 0.00 0.00 0.00 0.00 0.00 0.00 0.00 0.00 0.00 0.00 0.00 0.00 0.00 0.00 0.01 0.00 0.01 0.00 0.00 0.00 0.00 0.00 0.00 0.00 0.00
0.00 0.00 0.00 0.00 0.00 0.00 0.00 0.00 0.00 0.00 0.00 0.00 0.00 0.00 0.00 0.00 0.00 0.00 0.00 0.00 0.00 0.00 0.00 0.00 0.00 0.00 0.00 0.00 0.00 0.00 0.00 0.00 0.00 0.00 0.00 0.00 0.00 0.00 0.00 0.00 0.01 0.04 0.00 0.00 0.00
0.00 0.00 0.00 0.00 0.00 0.00 0.00 0.00 0.00 0.00 0.00 0.00 0.00 0.00 0.00 0.00 0.00 0.00 0.00 0.00 0.00 0.00 0.00 0.00 0.00 0.00 0.00 0.00 0.00 0.00 0.00 0.00 0.00 0.00 0.00 0.01 0.00 0.00 0.00 0.00 0.03 0.07 0.02 0.00 0.00
0.00 0.00 0.00 0.00 0.00 0.00 0.00 0.00 0.00 0.00 0.00 0.00 0.00 0.00 0.00 0.00 0.00 0.00 0.00 0.00 0.00 0.00 0.00 0.00 0.00 0.00 0.00 0.00 0.00 0.00 0.00 0.00 0.01 0.01 0.00 0.00 0.00 0.01 0.01 0.00 0.03 0.07 0.00 0.00 0.00
0.00 0.00 0.00 0.00 0.00 0.00 0.00 0.00 0.00 0.00 0.00 0.00 0.00 0.00 0.00 0.00 0.00 0.00 0.00 0.00 0.00 0.00 0.00 0.00 0.00 0.00 0.00 0.00 0.00 0.00 0.00 0.00 0.00 0.00 0.00 0.00 0.00 0.00 0.01 0.03 0.02 0.01 0.00 0.00 0.00
0.00 0.00 0.00 0.00 0.00 0.00 0.00 0.00 0.00 0.00 0.00 0.00 0.00 0.00 0.00 0.00 0.00 0.00 0.00 0.00 0.00 0.00 0.00 0.00 0.00 0.00 0.00 0.00 0.00 0.00 0.00 0.00 0.00 0.00 0.00 0.00 0.00 0.00 0.00 0.01 0.00 0.00 0.00 0.00 0.00
0.00 0.00 0.00 0.00 0.00 0.00 0.00 0.00 0.00 0.00 0.00 0.00 0.00 0.00 0.00 0.00 0.00 0.00 0.00 0.00 0.00 0.00 0.00 0.00 0.00 0.00 0.00 0.00 0.00 0.00 0.00 0.00 0.00 0.00 0.00 0.00 0.00 0.00 0.00 0.00 0.00 0.00 0.00 0.00 0.00
0.00 0.00 0.00 0.00 0.00 0.00 0.00 0.00 0.00 0.00 0.00 0.00 0.00 0.00 0.00 0.00 0.00 0.00 0.00 0.00 0.00 0.00 0.00 0.00 0.00 0.00 0.00 0.00 0.00 0.00 0.00 0.00 0.00 0.00 0.00 0.00 0.00 0.00 0.00 0.00 0.00 0.00 0.00 0.00 0.00
0.00 0.00 0.00 0.00 0.00 0.00 0.00 0.00 0.00 0.00 0.00 0.00 0.00 0.00 0.00 0.00 0.00 0.00 0.00 0.00 0.00 0.00 0.00 0.00 0.00 0.00 0.00 0.00 0.00 0.00 0.00 0.00 0.00 0.00 0.00 0.00 0.00 0.00 0.00 0.00 0.00 0.00 0.00 0.00 0.00
0.00 0.00 0.00 0.00 0.00 0.00 0.00 0.00 0.00 0.00 0.00 0.00 0.00 0.00 0.00 0.00 0.00 0.00 0.00 0.00 0.00 0.00 0.00 0.00 0.00 0.00 0.00 0.00 0.00 0.00 0.00 0.00 0.00 0.00 0.00 0.00 0.00 0.00 0.00 0.00 0.00 0.00 0.00 0.00 0.00
0.00 0.00 0.00 0.00 0.00 0.00 0.00 0.00 0.00 0.00 0.00 0.00 0.00 0.00 0.00 0.00 0.00 0.00 0.00 0.00 0.00 0.00 0.00 0.00 0.00 0.00 0.00 0.00 0.00 0.00 0.00 0.00 0.00 0.00 0.00 0.00 0.00 0.00 0.00 0.00 0.00 0.00 0.00 0.00 0.00
0.00 0.00 0.00 0.00 0.00 0.00 0.00 0.00 0.00 0.00 0.00 0.00 0.00 0.00 0.00 0.00 0.00 0.00 0.00 0.00 0.00 0.00 0.00 0.00 0.00 0.00 0.00 0.00 0.00 0.00 0.00 0.00 0.00 0.00 0.00 0.00 0.00 0.00 0.00 0.00 0.00 0.00 0.00 0.00 0.00
0.00 0.00 0.00 0.00 0.00 0.00 0.00 0.00 0.00 0.00 0.00 0.00 0.00 0.00 0.00 0.00 0.00 0.00 0.00 0.00 0.00 0.00 0.00 0.00 0.00 0.00 0.00 0.00 0.00 0.00 0.00 0.00 0.00 0.00 0.00 0.00 0.00 0.00 0.00 0.00 0.00 0.00 0.00 0.00 0.00
0.00 0.00 0.00 0.00 0.00 0.00 0.00 0.00 0.00 0.00 0.00 0.00 0.00 0.00 0.00 0.00 0.00 0.00 0.00 0.00 0.00 0.00 0.00 0.01 0.00 0.00 0.00 0.00 0.00 0.00 0.00 0.00 0.00 0.00 0.00 0.00 0.00 0.00 0.00 0.00 0.00 0.00 0.00 0.00 0.00
0.00 0.00 0.00 0.00 0.00 0.00 0.00 0.00 0.00 0.00 0.00 0.00 0.00 0.00 0.00 0.00 0.00 0.00 0.00 0.00 0.00 0.00 0.00 0.00 0.00 0.00 0.00 0.00 0.00 0.00 0.00 0.00 0.00 0.00 0.00 0.00 0.00 0.00 0.01 0.01 0.01 0.00 0.00 0.00 0.00
0.00 0.00 0.00 0.00 0.00 0.00 0.00 0.00 0.00 0.00 0.00 0.00 0.00 0.00 0.00 0.00 0.00 0.00 0.00 0.00 0.00 0.00 0.00 0.00 0.00 0.00 0.00 0.00 0.00 0.00 0.00 0.00 0.00 0.00 0.00 0.00 0.00 0.00 0.00 0.02 0.00 0.00 0.00 0.00 0.00
0.00 0.00 0.00 0.00 0.00 0.00 0.01 0.02 0.00 0.00 0.00 0.00 0.00 0.00 0.00 0.00 0.00 0.00 0.00 0.00 0.00 0.00 0.00 0.00 0.00 0.00 0.00 0.00 0.00 0.00 0.00 0.00 0.01 0.00 0.00 0.00 0.00 0.00 0.00 0.00 0.00 0.00 0.00 0.00 0.00
0.00 0.00 0.00 0.00 0.00 0.00 0.03 0.02 0.00 0.00 0.00 0.00 0.00 0.00 0.00 0.00 0.00 0.00 0.00 0.00 0.00 0.00 0.00 0.00 0.00 0.00 0.00 0.00 0.00 0.00 0.00 0.00 0.00 0.00 0.00 0.00 0.00 0.00 0.00 0.00 0.00 0.00 0.00 0.00 0.00
0.00 0.00 0.00 0.00 0.00 0.00 0.04 0.00 0.00 0.00 0.00 0.00 0.00 0.00 0.00 0.00 0.00 0.00 0.00 0.00 0.00 0.00 0.00 0.00 0.00 0.00 0.00 0.00 0.00 0.00 0.00 0.00 0.00 0.00 0.00 0.00 0.00 0.00 0.00 0.00 0.00 0.00 0.00 0.00 0.00
0.00 0.00 0.00 0.00 0.00 0.02 0.01 0.00 0.00 0.00 0.00 0.00 0.00 0.00 0.00 0.00 0.00 0.00 0.00 0.00 0.00 0.00 0.00 0.00 0.00 0.00 0.00 0.00 0.00 0.00 0.00 0.00 0.00 0.00 0.00 0.00 0.00 0.00 0.00 0.00 0.00 0.00 0.00 0.00 0.00
0.00 0.00 0.00 0.00 0.00 0.00 0.00 0.00 0.00 0.00 0.00 0.00 0.00 0.00 0.00 0.00 0.00 0.00 0.00 0.00 0.00 0.00 0.00 0.00 0.00 0.00 0.00 0.00 0.00 0.00 0.00 0.00 0.00 0.00 0.00 0.00 0.00 0.00 0.00 0.00 0.00 0.00 0.00 0.00 0.00
0.00 0.04 0.07 0.00 0.00 0.00 0.00 0.00 0.00 0.00 0.00 0.00 0.00 0.00 0.00 0.00 0.00 0.00 0.00 0.00 0.00 0.00 0.00 0.00 0.00 0.00 0.00 0.00 0.00 0.00 0.00 0.00 0.00 0.00 0.00 0.00 0.00 0.00 0.00 0.00 0.00 0.00 0.00 0.00 0.00
0.00 0.05 0.07 0.03 0.00 0.00 0.00 0.00 0.00 0.00 0.00 0.00 0.00 0.00 0.00 0.00 0.00 0.00 0.00 0.00 0.00 0.00 0.00 0.00 0.00 0.00 0.00 0.00 0.00 0.00 0.00 0.00 0.00 0.00 0.00 0.00 0.00 0.00 0.00 0.00 0.00 0.00 0.00 0.00 0.00
0.01 0.00 0.01 0.01 0.00 0.00 0.00 0.00 0.00 0.00 0.00 0.00 0.00 0.00 0.00 0.00 0.00 0.00 0.00 0.00 0.00 0.00 0.00 0.00 0.00 0.00 0.00 0.00 0.00 0.00 0.00 0.00 0.00 0.00 0.00 0.00 0.00 0.00 0.00 0.00 0.00 0.00 0.00 0.00 0.00
0.01 0.00 0.00 0.00 0.00 0.00 0.00 0.00 0.00 0.00 0.00 0.00 0.00 0.00 0.00 0.00 0.00 0.00 0.00 0.00 0.00 0.00 0.00 0.00 0.00 0.00 0.00 0.00 0.00 0.00 0.00 0.00 0.00 0.00 0.00 0.00 0.00 0.00 0.00 0.00 0.00 0.00 0.00 0.00 0.00
0.00 0.00 0.00 0.01 0.00 0.00 0.00 0.00 0.00 0.00 0.00 0.00 0.00 0.00 0.00 0.00 0.00 0.00 0.00 0.00 0.00 0.00 0.00 0.00 0.00 0.00 0.00 0.00 0.00 0.00 0.00 0.00 0.00 0.00 0.00 0.00 0.00 0.00 0.00 0.00 0.00 0.00 0.00 0.00 0.00
MSLP
1019.60 1019.46 1019.40 1019.00 1018.75 1018.81 1018.56 1018.56 1018.09 1017.76 1017.60 1016.92 1016.47 1016.63 1016.34 1016.30 1016.03 1014.68 1012.76 1010.39 1010.44 1010.57 1010.89 1010.24 1009.97 1009.51 1008.81 1007.89 1007.14 1006.49 1006.16 1005.10 1004.26 1004.72 1007.33 1007.94 1008.54 1007.21 1007.44 1008.94 1009.23 1009.27 1008.44 1009.65 1010.86
1019.33 1019.25 1019.21 1018.92 1018.65 1018.67 1018.41 1018.35 1017.97 1017.81 1017.45 1016.87 1016.30 1016.33 1016.12 1016.05 1015.40 1012.34 1009.53 1009.52 1009.91 1010.35 1010.52 1009.56 1008.83 1008.74 1008.10 1007.24 1006.68 1006.25 1005.63 1004.71 1004.62 1005.90 1008.45 1008.83 1009.22 1008.32 1007.26 1008.00 1008.78 1008.92 1009.06 1010.16 1011.50
1019.19 1019.03 1019.03 1018.88 1018.62 1018.45 1018.36 1018.15 1017.85 1017.62 1017.32 1016.80 1016.25 1016.12 1016.09 1015.95 1013.57 1008.95 1007.97 1008.86 1009.50 1010.07 1009.73 1008.39 1007.97 1007.79 1007.47 1006.59 1005.97 1005.65 1005.08 1004.57 1005.30 1006.97 1008.36 1008.72 1007.85 1007.07 1008.45 1009.55 1009.50 1009.88 1009.06 1010.86 1011.08
1018.95 1018.78 1018.75 1018.69 1018.47 1018.26 1018.28 1018.04 1017.73 1017.53 1017.26 1016.75 1016.40 1016.02 1016.18 1015.29 1011.54 1008.65 1008.81 1008.89 1009.44 1009.74 1009.68 1008.48 1007.55 1007.29 1006.94 1005.90 1005.34 1005.18 1004.92 1004.93 1005.37 1006.60 1006.75 1008.97 1008.38 1009.15 1009.74 1010.36 1009.64 1009.85 1009.49 1010.23 1010.67
1018.83 1018.63 1018.58 1018.39 1018.31 1018.14 1018.16 1017.82 1017.58 1017.35 1017.19 1016.64 1016.36 1016.17 1015.93 1013.22 1009.53 1008.51 1008.98 1009.45 1009.54 1009.73 1009.05 1007.74 1007.34 1006.96 1006.21 1005.30 1005.00 1004.96 1004.62 1004.50 1005.13 1005.37 1006.51 1007.55 1008.16 1008.99 1010.82 1010.09 1009.56 1010.30 1009.37 1009.59 1010.34
1018.63 1018.50 1018.38 1018.35 1018.18 1018.07 1017.92 1017.80 1017.49 1017.22 1017.16 1016.60 1016.40 1016.42 1015.57 1011.10 1007.20 1007.93 1008.67 1009.28 1008.91 1009.15 1008.35 1007.42 1006.72 1006.23 1005.87 1004.99 1004.80 1004.89 1004.85 1004.77 1004.92 1005.65 1005.68 1006.54 1007.97 1007.84 1009.80 1009.85 1010.28 1010.12 1009.77 1010.06 1010.14
1018.36 1018.39 1018.29 1018.21 1018.08 1017.89 1017.78 1017.66 1017.18 1017.14 1016.95 1016.43 1016.42 1016.17 1013.90 1009.90 1007.46 1007.56 1008.29 1008.26 1008.08 1008.22 1007.50 1007.10 1006.66 1006.58 1006.00 1005.47 1005.11 1005.40 1005.29 1005.18 1004.93 1005.21 1005.70 1006.64 1007.33 1007.52 1007.61 1008.13 1008.95 1009.18 1009.58 1010.12 1010.21
1017.96 1018.00 1018.14 1018.09 1018.02 1017.75 1017.60 1017.43 1017.00 1016.84 1016.68 1016.32 1016.35 1015.53 1011.83 1008.04 1007.68 1007.43 1007.55 1007.36 1007.49 1007.68 1007.70 1007.18 1007.17 1007.06 1006.87 1006.45 1006.03 1005.88 1005.72 1005.49 1005.03 1005.36 1005.78 1006.29 1007.11 1006.94 1007.08 1007.56 1008.27 1008.64 1009.27 1009.84 1010.40
1017.68 1017.80 1017.86 1017.83 1017.80 1017.55 1017.38 1017.08 1016.79 1016.64 1016.35 1016.23 1015.89 1014.20 1009.85 1007.99 1007.50 1006.93 1006.81 1006.77 1006.78 1007.52 1007.70 1007.42 1007.85 1007.59 1007.21 1006.94 1006.28 1006.10 1006.25 1005.53 1004.97 1005.04 1005.57 1006.25 1006.83 1006.79 1006.73 1007.35 1007.70 1008.33 1009.00 1009.55 1010.27
1017.47 1017.56 1017.60 1017.72 1017.55 1017.34 1017.33 1016.97 1016.50 1016.58 1015.89 1015.00 1014.16 1013.00 1009.35 1007.11 1006.14 1005.97 1006.03 1006.39 1006.90 1007.24 1007.65 1007.77 1007.80 1007.31 1007.06 1006.68 1006.71 1006.41 1005.96 1005.57 1004.56 1004.70 1005.00 1005.35 1006.06 1006.34 1006.56 1006.73 1007.26 1007.72 1008.63 1009.44 1010.30
1017.03 1017.32 1017.41 1017.44 1017.34 1017.27 1017.39 1016.66 1016.27 1015.18 1013.97 1011.41 1010.01 1009.01 1006.90 1006.31 1006.13 1006.05 1005.91 1006.54 1006.79 1007.34 1007.24 1007.21 1007.39 1006.93 1006.93 1007.14 1006.24 1006.09 1005.48 1004.32 1004.03 1004.41 1004.68 1004.89 1005.36 1005.98 1006.29 1006.49 1006.87 1008.37 1008.26 1009.17 1010.07
1016.66 1017.03 1017.26 1017.33 1017.20 1017.20 1017.29 1014.81 1011.80 1011.72 1010.91 1009.48 1008.77 1008.17 1007.32 1006.93 1005.87 1005.35 1005.62 1006.32 1006.60 1007.28 1007.86 1007.35 1007.56 1007.48 1007.26 1006.65 1005.99 1005.33 1005.11 1004.35 1004.59 1004.88 1005.00 1004.85 1004.99 1005.47 1005.95 1006.21 1006.32 1006.94 1007.66 1008.46 1009.36
1016.25 1016.72 1016.95 1017.26 1017.16 1017.17 1015.53 1013.48 1011.24 1011.64 1010.27 1007.52 1007.22 1007.04 1006.64 1006.41 1005.60 1004.90 1005.41 1005.65 1006.69 1007.28 1008.01 1008.16 1008.76 1008.05 1006.73 1006.02 1005.71 1005.32 1004.91 1005.28 1005.08 1005.32 1005.37 1005.93 1005.58 1005.63 1006.03 1006.17 1006.27 1006.65 1006.97 1007.63 1008.48
1015.89 1016.42 1016.66 1017.09 1017.32 1014.64 1013.63 1012.43 1012.34 1012.45 1010.32 1006.44 1005.96 1005.75 1005.72 1005.79 1005.34 1004.52 1004.82 1006.25 1007.39 1007.30 1008.46 1009.07 1007.94 1007.69 1006.40 1006.15 1005.72 1005.84 1006.13 1005.85 1005.89 1005.81 1006.00 1006.84 1007.11 1007.90 1007.50 1006.51 1006.10 1006.31 1006.62 1007.11 1007.91
1015.36 1015.99 1016.45 1016.32 1015.02 1013.28 1011.69 1011.10 1011.53 1011.86 1009.19 1004.80 1004.83 1004.40 1004.74 1005.31 1004.68 1004.71 1004.75 1005.44 1006.11 1006.78 1008.15 1008.58 1007.08 1006.77 1006.41 1006.38 1005.98 1006.75 1006.09 1006.37 1005.90 1006.04 1006.81 1007.57 1008.44 1007.71 1008.09 1007.34 1006.84 1007.17 1007.11 1007.00 1007.61
1014.88 1015.56 1016.39 1016.80 1015.63 1013.35 1012.61 1012.09 1011.79 1011.07 1007.44 1004.73 1004.16 1004.51 1004.64 1004.80 1004.31 1004.33 1005.05 1005.16 1005.75 1006.76 1006.76 1006.96 1006.95 1007.00 1007.32 1006.31 1005.99 1006.27 1006.45 1006.13 1006.12 1006.44 1007.65 1007.40 1008.67 1007.50 1007.86 1007.41 1008.98 1007.73 1007.91 1008.08 1007.99
1014.52 1015.17 1015.79 1014.62 1013.11 1012.42 1012.88 1012.28 1011.14 1008.77 1005.70 1004.37 1004.13 1004.35 1004.47 1004.42 1004.16 1003.98 1004.73 1004.98 1005.39 1006.01 1006.57 1006.71 1006.28 1005.97 1006.25 1005.68 1005.77 1005.92 1005.98 1006.34 1007.62 1008.03 1006.98 1006.05 1006.14 1005.72 1005.37 1007.88 1008.20 1007.98 1007.36 1008.21 1008.73
1014.24 1015.05 1015.06 1014.38 1013.19 1013.01 1012.83 1012.17 1009.33 1006.76 1005.00 1003.46 1003.85 1004.05 1004.05 1003.96 1004.15 1004.07 1004.39 1004.76 1005.13 1005.39 1005.89 1006.68 1007.02 1005.77 1005.72 1005.65 1006.44 1006.70 1006.09 1006.78 1009.01 1009.59 1007.25 1006.29 1005.20 1004.13 1004.61 1005.21 1006.23 1006.30 1007.16 1008.34 1009.05
1014.10 1014.82 1014.33 1013.77 1013.99 1013.49 1012.54 1010.70 1007.56 1005.31 1004.09 1003.33 1003.52 1003.68 1003.52 1003.55 1003.78 1004.06 1004.19 1004.16 1004.50 1005.04 1006.80 1008.43 1008.25 1007.84 1005.94 1005.60 1005.92 1005.70 1005.77 1006.48 1007.93 1008.22 1007.64 1006.66 1005.04 1003.93 1004.35 1004.92 1005.26 1006.05 1007.15 1008.19 1009.15
1012.86 1013.51 1012.57 1012.89 1013.55 1013.43 1012.07 1008.78 1006.59 1004.46 1003.22 1002.87 1002.98 1003.19 1003.00 1003.08 1003.78 1003.66 1003.97 1004.01 1004.12 1004.84 1006.33 1009.19 1010.70 1007.42 1006.44 1006.17 1005.89 1005.91 1006.03 1006.36 1006.99 1007.73 1007.63 1006.52 1005.15 1003.70 1004.40 1004.61 1005.19 1005.63 1006.78 1007.99 1009.12
1011.65 1011.56 1009.23 1011.64 1013.16 1012.28 1009.62 1007.46 1005.84 1004.05 1003.00 1002.69 1002.72 1002.74 1002.42 1002.66 1003.22 1003.26 1003.47 1003.53 1004.10 1004.80 1005.66 1006.43 1007.95 1006.44 1006.48 1005.88 1005.28 1005.73 1006.02 1006.46 1007.04 1007.46 1007.84 1007.25 1005.85 1005.16 1004.86 1004.78 1005.11 1005.71 1006.34 1007.48 1008.68
1010.53 1009.55 1007.82 1010.09 1011.35 1009.64 1008.20 1006.60 1005.47 1003.92 1003.05 1003.04 1002.80 1002.34 1002.30 1002.15 1002.70 1002.99 1003.47 1003.39 1003.83 1004.74 1005.55 1006.11 1006.27 1006.20 1005.79 1005.24 1005.37 1005.46 1005.65 1006.07 1007.03 1007.99 1008.08 1008.07 1006.50 1005.53 1005.29 1005.12 1005.47 1005.80 1005.96 1006.81 1007.87
1008.91 1008.63 1008.56 1008.33 1007.98 1007.46 1007.18 1006.01 1004.89 1003.82 1002.93 1003.16 1002.91 1002.49 1002.21 1002.20 1002.58 1003.18 1003.61 1005.10 1005.17 1005.45 1006.24 1006.34 1006.61 1006.60 1006.06 1005.67 1005.59 1005.70 1005.79 1006.04 1006.52 1007.61 1008.00 1008.01 1006.74 1005.62 1005.50 1005.45 1005.48 1005.73 1006.09 1006.48 1007.33
1007.53 1007.18 1007.80 1007.85 1006.69 1006.39 1006.03 1004.92 1004.27 1003.49 1002.73 1002.74 1002.84 1002.50 1002.35 1002.38 1002.64 1003.30 1004.01 1005.70 1006.12 1006.29 1007.07 1007.10 1006.99 1006.93 1006.70 1006.08 1005.78 1005.64 1005.79 1005.80 1006.32 1007.18 1007.57 1007.22 1006.22 1005.20 1004.87 1005.05 1005.11 1005.59 1006.24 1006.51 1006.99
1005.52 1004.28 1004.39 1004.87 1005.22 1004.91 1004.86 1004.23 1003.52 1002.75 1002.56 1002.28 1002.55 1002.45 1002.58 1002.57 1002.69 1003.55 1004.18 1005.68 1006.59 1007.27 1007.55 1007.69 1007.75 1007.74 1007.12 1006.46 1006.38 1006.25 1005.78 1005.63 1005.84 1006.21 1006.66 1006.47 1005.68 1004.82 1004.39 1004.69 1004.76 1005.10 1005.84 1006.56 1006.93
1004.18 1002.45 1002.84 1003.13 1004.53 1004.52 1003.65 1003.07 1002.49 1002.20 1001.99 1002.14 1002.27 1002.23 1002.64 1002.68 1002.87 1003.44 1003.99 1005.10 1006.12 1007.46 1007.55 1007.90 1008.50 1008.74 1008.56 1007.87 1007.28 1006.85 1006.38 1005.96 1005.74 1005.60 1005.50 1005.35 1004.90 1004.59 1004.56 1005.01 1005.47 1005.84 1006.24 1006.60 1007.17
1003.58 1002.14 1001.66 1002.27 1003.12 1003.43 1002.24 1002.16 1001.83 1001.78 1001.81 1001.89 1002.28 1002.25 1002.72 1002.98 1003.04 1004.14 1004.33 1004.73 1005.36 1006.61 1007.44 1008.09 1009.09 1009.81 1009.77 1009.33 1008.68 1007.83 1006.51 1005.93 1005.71 1005.51 1005.38 1005.16 1005.05 1004.98 1005.09 1005.16 1005.84 1006.40 1006.71 1007.02 1007.58
Thickness
5653 5652 5652 5655 5656 5653 5653 5649 5649 5647 5643 5643 5642 5636 5634 5629 5628 5640 5648 5669 5668 5666 5665 5670 5671 5674 5682 5684 5696 5705 5680 5686 5711 5725 5683 5687 5662 5709 5721 5695 5694 5702 5706 5706 5697
5650 5650 5649 5651 5653 5650 5649 5647 5646 5642 5641 5638 5639 5635 5632 5629 5632 5652 5677 5676 5672 5667 5662 5665 5667 5672 5672 5682 5692 5688 5685 5702 5726 5712 5675 5679 5677 5692 5709 5706 5696 5699 5703 5701 5689
5645 5646 5646 5646 5648 5647 5645 5644 5643 5640 5637 5635 5636 5633 5628 5627 5643 5677 5688 5680 5672 5667 5670 5678 5680 5677 5669 5685 5692 5695 5690 5714 5712 5691 5686 5686 5697 5714 5689 5677 5690 5645 5685 5687 5687
5642 5643 5643 5644 5644 5644 5641 5641 5640 5636 5633 5632 5631 5630 5624 5630 5645 5681 5679 5678 5672 5669 5667 5672 5676 5669 5667 5674 5698 5687 5705 5711 5711 5693 5698 5672 5688 5682 5679 5672 5689 5683 5691 5689 5684
5637 5639 5640 5641 5641 5640 5638 5639 5637 5634 5630 5629 5627 5625 5625 5641 5659 5680 5677 5672 5670 5668 5667 5674 5669 5671 5669 5687 5696 5692 5702 5715 5712 5713 5694 5696 5685 5680 5660 5676 5688 5679 5692 5691 5687
5632 5634 5637 5637 5637 5635 5635 5634 5633 5632 5627 5626 5623 5620 5624 5638 5690 5683 5676 5670 5672 5668 5671 5678 5677 5686 5680 5691 5694 5701 5702 5707 5711 5705 5711 5699 5684 5688 5666 5679 5675 5677 5685 5686 5688
5628 5628 5631 5632 5633 5632 5632 5631 5632 5629 5625 5625 5621 5620 5630 5651 5686 5684 5678 5675 5679 5675 5672 5682 5687 5680 5688 5685 5700 5696 5685 5696 5704 5707 5701 5695 5680 5682 5693 5695 5688 5689 5686 5684 5687
5625 5626 5626 5627 5628 5629 5629 5629 5630 5628 5625 5624 5621 5624 5638 5680 5682 5683 5683 5680 5684 5682 5674 5684 5685 5678 5675 5684 5685 5679 5682 5668 5698 5700 5700 5694 5659 5692 5703 5697 5690 5691 5688 5686 5684
5620 5622 5623 5624 5624 5626 5626 5628 5628 5626 5626 5623 5623 5631 5649 5682 5674 5686 5688 5677 5682 5675 5677 5681 5674 5667 5673 5663 5667 5673 5651 5668 5688 5705 5697 5687 5666 5693 5707 5697 5692 5690 5688 5686 5683
5614 5617 5619 5619 5620 5623 5622 5625 5627 5624 5627 5630 5634 5630 5658 5667 5686 5691 5695 5688 5675 5672 5665 5665 5663 5662 5666 5664 5639 5651 5661 5675 5688 5703 5702 5693 5682 5695 5702 5701 5695 5695 5690 5686 5680
5611 5612 5614 5615 5617 5619 5618 5624 5630 5633 5636 5655 5662 5659 5674 5685 5691 5684 5691 5679 5676 5666 5654 5668 5654 5653 5656 5663 5679 5676 5679 5690 5707 5709 5701 5699 5695 5694 5701 5701 5696 5684 5689 5684 5679
5607 5608 5609 5610 5613 5614 5612 5631 5654 5651 5645 5664 5665 5665 5674 5677 5669 5682 5693 5668 5667 5647 5651 5659 5644 5662 5671 5677 5681 5688 5685 5693 5700 5704 5700 5703 5700 5704 5703 5701 5703 5697 5691 5687 5684
5602 5603 5605 5604 5607 5609 5622 5635 5655 5648 5642 5667 5671 5665 5668 5674 5668 5678 5685 5679 5660 5654 5650 5643 5641 5660 5673 5680 5679 5685 5685 5681 5687 5696 5702 5685 5690 5696 5703 5705 5705 5703 5703 5699 5691
5596 5597 5600 5601 5602 5623 5626 5640 5641 5637 5628 5659 5662 5667 5672 5672 5663 5694 5697 5669 5654 5652 5639 5636 5661 5656 5677 5672 5685 5664 5682 5684 5679 5682 5667 5686 5651 5647 5662 5691 5700 5701 5701 5699 5696
5592 5592 5593 5600 5614 5624 5640 5646 5642 5633 5608 5674 5667 5691 5677 5661 5675 5678 5698 5680 5660 5660 5649 5632 5662 5669 5669 5669 5680 5657 5684 5679 5691 5688 5670 5663 5644 5665 5665 5671 5687 5691 5696 5700 5698
5586 5586 5585 5589 5599 5621 5626 5633 5631 5610 5610 5657 5672 5660 5658 5664 5673 5684 5677 5689 5680 5660 5668 5667 5678 5670 5660 5681 5684 5685 5679 5687 5690 5686 5633 5664 5638 5659 5660 5669 5641 5685 5689 5690 5693
5579 5580 5582 5593 5608 5621 5618 5620 5608 5607 5664 5658 5658 5662 5658 5657 5666 5675 5666 5665 5658 5648 5648 5663 5673 5688 5683 5679 5687 5685 5677 5653 5623 5619 5644 5695 5682 5669 5689 5660 5656 5662 5690 5686 5684
5570 5571 5578 5586 5603 5608 5609 5603 5605 5641 5651 5679 5667 5663 5653 5664 5663 5669 5664 5657 5673 5672 5665 5650 5634 5678 5689 5680 5649 5656 5675 5649 5589 5584 5651 5684 5672 5695 5704 5702 5688 5689 5688 5681 5676
5560 5563 5574 5584 5589 5597 5600 5594 5624 5650 5666 5667 5665 5652 5657 5669 5667 5663 5663 5665 5675 5679 5641 5624 5632 5651 5681 5687 5680 5674 5665 5681 5644 5650 5647 5666 5689 5711 5707 5700 5702 5691 5685 5676 5671
5560 5564 5578 5580 5581 5587 5590 5610 5637 5662 5673 5673 5651 5662 5654 5664 5656 5661 5661 5676 5675 5681 5666 5612 5585 5645 5670 5679 5682 5673 5683 5657 5661 5628 5626 5659 5675 5685 5684 5690 5693 5690 5682 5676 5670
5559 5566 5594 5578 5573 5582 5598 5621 5642 5663 5674 5664 5660 5661 5670 5666 5665 5663 5666 5682 5679 5677 5678 5670 5642 5658 5665 5663 5666 5666 5660 5665 5666 5658 5630 5630 5658 5687 5685 5691 5688 5687 5684 5677 5668
5557 5566 5593 5580 5571 5596 5604 5630 5643 5652 5669 5663 5665 5674 5670 5679 5668 5668 5666 5682 5691 5683 5664 5673 5663 5643 5658 5681 5684 5676 5668 5668 5636 5635 5640 5629 5645 5689 5688 5689 5687 5684 5685 5680 5673
5558 5567 5574 5583 5583 5595 5612 5627 5638 5644 5658 5654 5656 5669 5679 5671 5661 5669 5675 5665 5674 5672 5662 5667 5651 5629 5644 5664 5673 5661 5668 5670 5667 5648 5633 5615 5640 5685 5683 5680 5683 5680 5681 5678 5670
5556 5555 5559 5572 5601 5601 5609 5623 5627 5649 5657 5660 5659 5669 5668 5666 5674 5663 5664 5655 5660 5663 5645 5656 5652 5642 5627 5647 5661 5654 5659 5667 5661 5627 5631 5634 5654 5674 5679 5674 5677 5676 5675 5673 5667
5555 5576 5587 5581 5591 5605 5616 5625 5626 5635 5654 5660 5654 5659 5660 5654 5661 5655 5664 5649 5649 5635 5645 5648 5633 5643 5652 5661 5658 5654 5658 5663 5657 5658 5636 5650 5656 5674 5683 5675 5676 5674 5669 5664 5661
5562 5583 5594 5600 5595 5599 5614 5622 5631 5641 5649 5646 5648 5661 5664 5656 5660 5652 5659 5650 5641 5638 5641 5644 5625 5631 5627 5644 5648 5641 5651 5657 5660 5663 5663 5664 5661 5682 5681 5675 5667 5662 5659 5653 5648
5557 5585 5594 5592 5593 5597 5616 5627 5633 5644 5653 5659 5656 5660 5657 5659 5668 5661 5664 5665 5659 5642 5634 5633 5619 5611 5611 5624 5622 5610 5635 5648 5655 5662 5660 5644 5662 5673 5666 5662 5653 5656 5649 5642 5637